sat.trackr.live / text

‹ back to catalog

STARLINK-32179

NORAD 60734 · 2024-152Q

PAYLOAD ACTIVE UNKNOWN

§ Identity

Operator
Country
US
Launch date
2024-08-28
Launch site
AFETR
Launch vehicle
Mass (kg)
RCS (m²)

Purposes: comms

External: N2YO · Heavens-Above · Gunter

§ Orbital elements

Epoch: 2026-09-21T18:32:36.262752Z

Period
93.85 min
Inclination
53.1604°
Eccentricity
0.0001158
Mean motion
15.34388976 rev/d
Perigee alt
461.9 km
Apogee alt
463.5 km
Semi-major
6,840.9 km
B*
2.3021e-5
RAAN
75.4051°
Arg perigee
96.5583°
Mean anomaly
263.5552°
Rev number
11,677

§ Raw data

STARLINK-321791 60734U 24152Q   26264.77264193  .00000401  00000+0  23021-4 0  99992 60734  53.1604  75.4051 0001158  96.5583 263.5552 15.34388976116778

JSON: /api/v1/satellites/60734 · /tle

For live sub-satellite position, see the globe view (requires WebGL).

§ Visibility from observer

Set your observer location to see the next 7 days of passes ≥ 10°. The values pass through the URL so the page stays shareable.

No JS? Fill the form by hand. The geolocation button needs JavaScript.